• în România
  • Lista ţărilor
  • Pe 7 zile
  • Temperatura apei
  • Hartă satelitară
  • Meteo pe hartă
  • Widget-uri
  • user-avatar
    Intrare

    Meteo pe oră la Yastrebovka

    Astăzi, 20 Iulie, Vineri

    Timp Temperatura Precipitaţii Vânt Presiune Umiditate
    00:00 +20°C° 0 mm 2 m/s 739 mmHg 89%
    01:00 +19°C° 0 mm 3 m/s 739 mmHg 90%
    02:00 +19°C° 0 mm 3 m/s 739 mmHg 90%
    03:00 +19°C° 0 mm 3 m/s 739 mmHg 91%
    04:00 +19°C° 0 mm 3 m/s 739 mmHg 90%
    05:00 +19°C° 0 mm 2 m/s 739 mmHg 89%
    06:00 +20°C° 0 mm 2 m/s 739 mmHg 89%
    07:00 +22°C° 0,1 mm 3 m/s 739 mmHg 83%
    08:00 +24°C° 0,1 mm 3 m/s 739 mmHg 78%
    09:00 +26°C° 0,1 mm 3 m/s 740 mmHg 72%
    10:00 +27°C° 0,4 mm 3 m/s 740 mmHg 68%
    11:00 +28°C° 0,4 mm 3 m/s 739 mmHg 63%
    12:00 +29°C° 0,4 mm 3 m/s 739 mmHg 59%
    13:00 +29°C° 0,5 mm 3 m/s 739 mmHg 59%
    14:00 +29°C° 0,5 mm 3 m/s 739 mmHg 59%
    15:00 +29°C° 0,5 mm 2 m/s 739 mmHg 59%
    16:00 +28°C° 0,8 mm 2 m/s 739 mmHg 66%
    17:00 +27°C° 0,8 mm 2 m/s 739 mmHg 73%
    18:00 +26°C° 0,8 mm 2 m/s 739 mmHg 80%
    19:00 +25°C° 0,1 mm 2 m/s 739 mmHg 83%
    20:00 +24°C° 0,1 mm 2 m/s 739 mmHg 87%
    21:00 +23°C° 0,1 mm 2 m/s 739 mmHg 90%
    22:00 +21°C° 0 mm 2 m/s 739 mmHg 91%
    23:00 +21°C° 0 mm 2 m/s 739 mmHg 91%

    Mâine, 21 Iulie, Sâmbătă

    Timp Temperatura Precipitaţii Vânt Presiune Umiditate
    00:00 +20°C° 0 mm 2 m/s 738 mmHg 92%
    01:00 +20°C° 0 mm 2 m/s 738 mmHg 92%
    02:00 +20°C° 0 mm 2 m/s 738 mmHg 93%
    03:00 +20°C° 0 mm 1 m/s 738 mmHg 93%
    04:00 +21°C° 0 mm 1 m/s 738 mmHg 93%
    05:00 +21°C° 0 mm 1 m/s 738 mmHg 92%
    06:00 +20°C° 0 mm 2 m/s 738 mmHg 91%
    07:00 +23°C° 0 mm 2 m/s 738 mmHg 86%
    08:00 +24°C° 0 mm 2 m/s 739 mmHg 81%
    09:00 +26°C° 0 mm 2 m/s 739 mmHg 75%
    10:00 +27°C° 0 mm 2 m/s 738 mmHg 71%
    11:00 +28°C° 0 mm 2 m/s 738 mmHg 66%
    12:00 +29°C° 0 mm 2 m/s 738 mmHg 61%
    13:00 +29°C° 0,4 mm 2 m/s 738 mmHg 62%
    14:00 +30°C° 0,4 mm 2 m/s 738 mmHg 62%
    15:00 +30°C° 0,4 mm 2 m/s 738 mmHg 62%
    16:00 +29°C° 0,7 mm 2 m/s 738 mmHg 65%
    17:00 +29°C° 0,7 mm 2 m/s 738 mmHg 68%
    18:00 +29°C° 0,7 mm 1 m/s 738 mmHg 70%
    19:00 +27°C° 0,2 mm 1 m/s 738 mmHg 75%
    20:00 +26°C° 0,2 mm 1 m/s 739 mmHg 80%
    21:00 +24°C° 0,2 mm 1 m/s 739 mmHg 85%
    22:00 +24°C° 0 mm 1 m/s 739 mmHg 86%
    23:00 +23°C° 0 mm 1 m/s 739 mmHg 88%

    Poimâine, 22 Iulie, Duminică

    Timp Temperatura Precipitaţii Vânt Presiune Umiditate
    00:00 +23°C° 0 mm 1 m/s 739 mmHg 89%
    01:00 +22°C° 0 mm 1 m/s 739 mmHg 90%
    02:00 +22°C° 0 mm 1 m/s 739 mmHg 91%
    03:00 +22°C° 0 mm 1 m/s 739 mmHg 92%
    04:00 +22°C° 0,2 mm 1 m/s 739 mmHg 91%
    05:00 +22°C° 0,2 mm 1 m/s 739 mmHg 91%
    06:00 +23°C° 0,2 mm 1 m/s 739 mmHg 90%
    07:00 +24°C° 0,5 mm 1 m/s 739 mmHg 85%
    08:00 +25°C° 0,5 mm 2 m/s 739 mmHg 80%
    09:00 +27°C° 0,5 mm 2 m/s 739 mmHg 76%
    10:00 +27°C° 0,7 mm 2 m/s 739 mmHg 71%
    11:00 +28°C° 0,7 mm 2 m/s 739 mmHg 67%
    12:00 +29°C° 0,7 mm 2 m/s 739 mmHg 63%
    13:00 +30°C° 0,2 mm 2 m/s 739 mmHg 61%
    14:00 +30°C° 0,2 mm 2 m/s 739 mmHg 59%
    15:00 +30°C° 0,2 mm 1 m/s 739 mmHg 57%
    16:00 +30°C° 0,6 mm 2 m/s 739 mmHg 61%
    17:00 +29°C° 0,6 mm 2 m/s 739 mmHg 64%
    18:00 +29°C° 0,6 mm 2 m/s 739 mmHg 68%
    19:00 +27°C° 0,2 mm 2 m/s 739 mmHg 74%
    20:00 +26°C° 0,2 mm 2 m/s 739 mmHg 79%
    21:00 +24°C° 0,2 mm 2 m/s 739 mmHg 85%
    22:00 +24°C° 0 mm 2 m/s 739 mmHg 87%
    23:00 +23°C° 0 mm 2 m/s 739 mmHg 88%

    23 Iulie, Luni

    Timp Temperatura Precipitaţii Vânt Presiune Umiditate
    00:00 +23°C° 0 mm 2 m/s 739 mmHg 90%
    01:00 +23°C° 0,2 mm 2 m/s 740 mmHg 90%
    02:00 +21°C° 0,2 mm 2 m/s 740 mmHg 91%
    03:00 +21°C° 0,2 mm 2 m/s 740 mmHg 92%
    04:00 +21°C° 0 mm 2 m/s 740 mmHg 92%
    05:00 +23°C° 0 mm 2 m/s 740 mmHg 92%
    06:00 +23°C° 0 mm 2 m/s 740 mmHg 93%
    07:00 +24°C° 0,4 mm 3 m/s 740 mmHg 88%
    08:00 +25°C° 0,4 mm 3 m/s 740 mmHg 83%
    09:00 +26°C° 0,4 mm 3 m/s 740 mmHg 79%
    10:00 +27°C° 0,2 mm 3 m/s 740 mmHg 73%
    11:00 +28°C° 0,2 mm 3 m/s 741 mmHg 68%
    12:00 +29°C° 0,2 mm 3 m/s 741 mmHg 63%
    13:00 +30°C° 0,4 mm 3 m/s 741 mmHg 62%
    14:00 +30°C° 0,4 mm 3 m/s 741 mmHg 60%
    15:00 +30°C° 0,4 mm 3 m/s 741 mmHg 59%
    16:00 +30°C° 0,7 mm 2 m/s 741 mmHg 62%
    17:00 +29°C° 0,7 mm 2 m/s 741 mmHg 65%
    18:00 +29°C° 0,7 mm 2 m/s 741 mmHg 67%
    19:00 +27°C° 0,3 mm 2 m/s 742 mmHg 73%
    20:00 +26°C° 0,3 mm 2 m/s 742 mmHg 78%
    21:00 +24°C° 0,3 mm 2 m/s 742 mmHg 83%
    22:00 +24°C° 0,2 mm 2 m/s 742 mmHg 84%
    23:00 +23°C° 0,2 mm 2 m/s 742 mmHg 86%

    24 Iulie, Marţi

    Timp Temperatura Precipitaţii Vânt Presiune Umiditate
    00:00 +23°C° 0,2 mm 2 m/s 742 mmHg 87%
    01:00 +22°C° 0 mm 1 m/s 742 mmHg 88%
    02:00 +22°C° 0 mm 1 m/s 743 mmHg 89%
    03:00 +22°C° 0 mm 1 m/s 743 mmHg 90%
    04:00 +22°C° 0 mm 1 m/s 743 mmHg 90%
    05:00 +22°C° 0 mm 1 m/s 743 mmHg 89%
    06:00 +23°C° 0 mm 1 m/s 743 mmHg 89%
    07:00 +24°C° 0,7 mm 2 m/s 743 mmHg 84%
    08:00 +25°C° 0,7 mm 2 m/s 743 mmHg 79%
    09:00 +27°C° 0,7 mm 2 m/s 743 mmHg 75%
    10:00 +28°C° 0,9 mm 2 m/s 744 mmHg 71%
    11:00 +28°C° 0,9 mm 3 m/s 744 mmHg 67%
    12:00 +29°C° 0,9 mm 3 m/s 744 mmHg 63%
    13:00 +29°C° 1,4 mm 3 m/s 744 mmHg 66%
    14:00 +28°C° 1,4 mm 4 m/s 744 mmHg 69%
    15:00 +28°C° 1,4 mm 4 m/s 744 mmHg 71%
    16:00 +27°C° 0,7 mm 4 m/s 744 mmHg 76%
    17:00 +26°C° 0,7 mm 3 m/s 745 mmHg 81%
    18:00 +25°C° 0,7 mm 3 m/s 745 mmHg 85%
    19:00 +24°C° 0,4 mm 3 m/s 745 mmHg 86%
    20:00 +22°C° 0,4 mm 3 m/s 745 mmHg 87%
    21:00 +21°C° 0,4 mm 3 m/s 745 mmHg 88%
    22:00 +21°C° 0,5 mm 2 m/s 745 mmHg 87%
    23:00 +20°C° 0,5 mm 2 m/s 745 mmHg 87%

    25 Iulie, Miercuri

    Timp Temperatura Precipitaţii Vânt Presiune Umiditate
    00:00 +20°C° 0,5 mm 2 m/s 745 mmHg 86%
    01:00 +20°C° 0,8 mm 3 m/s 745 mmHg 87%
    02:00 +19°C° 0,8 mm 3 m/s 745 mmHg 87%
    03:00 +19°C° 0,8 mm 4 m/s 745 mmHg 88%
    04:00 +19°C° 0,9 mm 4 m/s 745 mmHg 86%
    05:00 +19°C° 0,9 mm 5 m/s 745 mmHg 85%
    06:00 +17°C° 0,9 mm 6 m/s 745 mmHg 84%
    07:00 +17°C° 0,8 mm 6 m/s 745 mmHg 84%
    08:00 +17°C° 0,8 mm 6 m/s 745 mmHg 84%
    09:00 +17°C° 0,8 mm 6 m/s 745 mmHg 84%
    10:00 +20°C° 0,1 mm 6 m/s 745 mmHg 82%
    11:00 +21°C° 0,1 mm 6 m/s 745 mmHg 81%
    12:00 +22°C° 0,1 mm 6 m/s 745 mmHg 79%
    13:00 +24°C° 0,1 mm 6 m/s 745 mmHg 76%
    14:00 +26°C° 0,1 mm 5 m/s 745 mmHg 74%
    15:00 +27°C° 0,1 mm 5 m/s 745 mmHg 71%
    16:00 +27°C° 0,9 mm 5 m/s 745 mmHg 73%
    17:00 +27°C° 0,9 mm 4 m/s 746 mmHg 75%
    18:00 +26°C° 0,9 mm 4 m/s 746 mmHg 78%
    19:00 +25°C° 0,4 mm 4 m/s 746 mmHg 80%
    20:00 +23°C° 0,4 mm 4 m/s 746 mmHg 82%
    21:00 +21°C° 0,4 mm 3 m/s 746 mmHg 84%
    22:00 +20°C° 0 mm 4 m/s 747 mmHg 81%
    23:00 +19°C° 0 mm 4 m/s 747 mmHg 79%
    Arată mai mult